Content
SEND FEEDBACK

Daily
Averages
Monthly
Summary
United States of America

ST. LOUIS, MISSOURI


Home > North America > United States > Missouri
Elevation: 163 meters     Latitude: 38 45N     Longitude: 090 22W

WEATHER
 
SELECT A DAY
Number of Records: 196,268;   Date Range: 1/1/95 - 7/20/14
 
SHARE

PRINT THIS DATA

[ ← Previous Day ]
WEATHER ALMANAC - 21 JANUARY, 2013
[ Next Day → ]
[ °F ]   °C
Weather ElementAverageHighLow
Temperature-6.5 °C-2.8 °C (12:54 pm)-8.9 °C (9:54 pm)
Dewpoint-16.3 °C-11.7 °C (2:54 am)-20.6 °C (2:54 pm)
Humidity48 %68 % (4:03 am)28 % (1:54 pm)
Barometer1029.1 hPa1030.8 hPa (10:54 pm)1027.4 hPa (3:52 am)
Wind Speed19.8 km/h37 km/h (3:54 am)
Wind Gust51.8 km/h (3:52 am)
Weather ElementAverage
Visibility16.1 km
Wind DirectionWNW (309.2 °)

Weather ElementTotal
Precipitation---
Heating Degree Days24.2 (Base 18.3)
Averaged from 25 records on 21 January, 2013
WEATHER CONDITIONS BREAKOUT
WIND DIRECTION BREAKOUT
WEATHER BY HOUR - 21 JANUARY, 2013
[ °F ]   °C
Local TimeTemperatureDewpointHumidityBarometerVisibilityWind DirectionWind SpeedGust SpeedPrecipitationEventsConditions
1:54 AM-5.6 °C-12.2 °C60 %1027.8 hPa16.1 kmNW (320°)14.8 km/hClear
2:54 AM-5.6 °C-11.7 °C63 %1027.8 hPa16.1 kmNW (310°)11.1 km/hClear
3:52 AM-6 °C-12 °C63 %1027.4 hPa16.1 kmNW (320°)35.2 km/h51.8 km/hMostly Cloudy
3:54 AM-6.1 °C-12.2 °C63 %1028.4 hPa16.1 kmNW (320°)37 km/h51.8 km/hMostly Cloudy
4:03 AM-7 °C-12 °C68 %1027.4 hPa16.1 kmNW (310°)18.5 km/hScattered Clouds
4:54 AM-7.2 °C-13.3 °C62 %1028.4 hPa16.1 kmWNW (290°)13 km/hClear
5:54 AM-7.2 °C-12.2 °C68 %1028.8 hPa16.1 kmWNW (290°)16.7 km/hClear
6:54 AM-7.2 °C-13.3 °C62 %1028.8 hPa16.1 kmWest (280°)16.7 km/h27.8 km/hMostly Cloudy
7:54 AM-7.2 °C-14.4 °C57 %1028.8 hPa16.1 kmWNW (290°)14.8 km/hScattered Clouds
8:54 AM-6.1 °C-15 °C50 %1029.1 hPa16.1 kmWNW (290°)25.9 km/hPartly Cloudy
9:54 AM-5.6 °C-15 °C48 %1029.1 hPa16.1 kmWNW (300°)29.6 km/h40.7 km/hPartly Cloudy
10:54 AM-3.9 °C-15.6 °C41 %1029.1 hPa16.1 kmWNW (300°)24.1 km/h46.3 km/hPartly Cloudy
11:54 AM-3.3 °C-15.6 °C39 %1028.4 hPa16.1 kmWNW (300°)22.2 km/hPartly Cloudy
12:54 PM-2.8 °C-17.2 °C33 %1027.8 hPa16.1 kmWNW (290°)24.1 km/h38.9 km/hMostly Cloudy
1:54 PM-3.9 °C-20 °C28 %1028.4 hPa16.1 kmNNW (330°)24.1 km/h42.6 km/hMostly Cloudy
2:54 PM-6.1 °C-20.6 °C32 %1029.1 hPa16.1 kmNW (320°)25.9 km/h38.9 km/hOvercast
3:54 PM-6.7 °C-20 °C35 %1029.5 hPa16.1 kmNW (310°)22.2 km/hOvercast
4:54 PM-7 °C-20 °C36 %1028.1 hPa16.1 kmNW (310°)16.7 km/hOvercast
5:54 PM-7.8 °C-19.4 °C40 %1030.1 hPa16.1 kmNW (320°)18.5 km/hOvercast
6:54 PM-7.8 °C-19.4 °C40 %1030.1 hPa16.1 kmNNW (330°)13 km/hOvercast
7:54 PM-7.8 °C-19.4 °C40 %1030.1 hPa16.1 kmNW (320°)14.8 km/hOvercast
8:54 PM-8.3 °C-20 °C39 %1030.1 hPa16.1 kmNW (320°)18.5 km/hOvercast
9:54 PM-8.9 °C-20 °C41 %1030.5 hPa16.1 kmWNW (300°)13 km/hOvercast
10:54 PM-8.9 °C-18.3 °C47 %1030.8 hPa16.1 kmNNW (330°)14.8 km/hOvercast
11:54 PM-8.9 °C-18.9 °C45 %1030.8 hPa16.1 kmNNW (330°)9.3 km/hOvercast
Hourly data recorded from KSUS, located 0 kilometers away from St. Louis, Missouri







STORIES FROM OUR PARTNERS